[[{"header":{"parameterUnit":"m.s-1","parameterCategory":1,"la1":30.2991,"la2":30.254,"lo1":-89.0895,"lo2":-89.0444,"dy":0.0017,"dx":0.0017,"nx":28,"ny":28,"refTime":"2024-08-03T09:00:00:Z","depth":0,"parameterNumber":2,"parameterNumberName":"U-component_of_WINDS"},"data":[0,0,0,0,0,0,0,0,0,0,0,0,0,0,0,0,0,0,0,0,0,0,0,0,0,0,0,0,0,0,0,0,0,0,0,0,0,0,0,0,0,0,0,0,0,0,0,0,0,0,0,0,0,0,0,0,0,0,-4.6838,-4.6838,0,-4.6839,-4.6839,-4.6839,-4.672,-4.6716,-4.6713,-4.671,-4.6711,-4.6713,-4.6716,0,0,0,0,0,0,0,0,0,0,0,0,0,-4.6734,-4.6737,-4.6838,-4.6838,-4.6838,-4.6839,-4.6839,-4.6839,-4.672,-4.6716,-4.6713,-4.6709,-4.671,-4.6713,-4.6717,0,0,0,0,0,0,0,0,0,0,0,0,0,-4.6762,-4.6738,-4.6838,-4.6779,-4.6774,-4.6839,-4.6839,-4.6839,-4.6721,-4.6716,-4.6712,-4.6707,-4.6709,-4.6713,-4.6717,-4.6839,0,0,-4.6731,-4.6733,0,0,0,0,0,0,0,0,-4.6761,-4.6766,-4.6788,-4.6783,-4.6778,-4.6774,-4.6802,-4.6839,-4.6722,-4.6741,-4.671,-4.6705,-4.6736,-4.6738,-4.6748,-4.6839,-4.6839,-4.6731,-4.6734,-4.6736,-4.6737,0,0,0,0,0,0,0,-4.6759,-4.6765,-4.6839,-4.6788,-4.6782,-4.6753,-4.6751,-4.6809,-4.6765,-4.6739,-4.673,-4.6732,-4.6732,-4.6744,-4.6747,-4.6839,-4.6731,-4.6735,-4.6738,-4.6739,-4.7031,-4.7036,0,0,0,0,0,0,-4.6765,-4.6764,-4.6839,-4.6839,-4.6757,-4.6758,-4.6757,-4.678,-4.6764,-4.6757,-4.6736,-4.6727,-4.6739,-4.6742,-4.6747,-4.6889,-4.6736,-4.674,-4.6742,-4.7026,-4.7032,-4.7038,0,0,0,0,0,0,-4.6763,-4.6773,-4.6839,-4.6799,-4.6805,-4.6765,-4.6792,-4.6783,-4.6795,-4.6762,-4.6753,-4.6757,-4.6735,-4.674,-4.6817,-4.6887,-4.6742,-4.6746,-4.702,-4.7028,-4.7035,-4.7174,0,0,0,0,0,0,-4.6761,-4.6773,-4.6818,-4.6801,-4.6808,-4.6909,-4.6797,-4.6786,-4.6803,-4.679,-4.6779,-4.6772,-4.6732,-4.6811,-4.6822,-4.6891,-4.6749,-4.7014,-4.7024,-4.7033,-4.7163,-4.7186,-4.7205,0,0,0,0,0,-4.6757,-4.6857,-4.6821,-4.6831,-4.6864,-4.6913,-4.6917,-4.6869,-4.6809,-4.6854,-4.6834,-4.6773,-4.6878,-4.682,-4.6831,-4.6902,-4.7009,-4.7021,-4.7032,-4.7154,-4.7181,-4.7204,0,0,0,0,0,0,-4.6883,-4.6854,-4.6814,-4.6911,-4.6916,-4.6893,-4.6949,-4.6899,-4.6921,-4.6909,-4.6848,-4.6846,-4.6933,-4.6925,-4.6861,-4.702,-4.6933,-4.6947,-4.7022,-4.7048,-4.7068,-4.7068,-4.6753,0,0,0,0,0,-4.6922,-4.6965,-4.6937,-4.7025,-4.703,-4.699,-4.7009,-4.6972,-4.6974,-4.6976,-4.696,-4.6965,-4.6999,-4.7023,-4.7052,-4.7162,-4.7158,-4.7216,-4.7237,-4.7255,-4.7267,-4.7326,-4.7352,-4.7076,-4.7076,-4.7075,0,0,-4.7003,-4.6992,-4.7022,-4.705,-4.7049,-4.7095,-4.6992,-4.7044,-4.7078,-4.6983,-4.7055,-4.7045,-4.7046,-4.714,-4.7181,-4.7136,-4.7343,-4.7269,-4.7283,-4.7287,-4.734,-4.7367,-4.739,-4.7083,-4.7082,-4.7081,0,0,-4.7173,-4.7169,-4.7243,-4.7245,-4.7246,-4.7219,-4.7237,-4.7223,-4.7212,-4.7284,-4.7214,-4.7253,-4.7313,-4.7318,-4.7328,-4.7503,-4.7448,-4.7514,-4.7623,-4.7681,-4.7703,-4.7722,-4.7785,-4.7808,-4.7527,-4.7528,-4.7528,0,-4.7273,-4.734,-4.7287,-4.7345,-4.7359,-4.7277,-4.7352,-4.7356,-4.7367,-4.7379,-4.7329,-4.7404,-4.7399,-4.7493,-4.7537,-4.7547,-4.7566,-4.7515,-4.7704,-4.7722,-4.7739,-4.7799,-4.7823,-4.7536,-4.7535,-4.7534,-4.7533,0,-4.7463,-4.7511,-4.757,-4.7583,-4.7604,-4.7671,-4.7628,-4.7656,-4.7618,-4.7597,-4.7671,-4.7663,-4.769,-4.771,-4.7672,-4.78,-4.7772,-4.7715,-4.7625,-4.7775,-4.783,-4.7852,-4.7547,-4.7545,-4.7542,-4.754,0,0,-4.7711,-4.7696,-4.7719,-4.7725,-4.7721,-4.7756,-4.7819,-4.7846,-4.7872,-4.7883,-4.7934,-4.7988,-4.7935,-4.7947,-4.7909,-4.796,-4.8101,-4.7896,-4.7895,-4.7935,-4.8242,-4.8286,-4.8313,-4.8065,-4.8069,-4.8072,-4.8242,0,-4.7877,-4.7983,-4.7939,-4.805,-4.8093,-4.8017,-4.8072,-4.8076,-4.8058,-4.8093,-4.8073,-4.8113,-4.8039,-4.8046,-4.8093,-4.8074,-4.8162,-4.8061,-4.8112,-4.8115,-4.8114,-4.8341,-4.8387,-4.8548,-4.8263,-4.8267,-4.8269,0,-4.8084,-4.8105,-4.822,-4.821,-4.8227,-4.8277,-4.8299,-4.8333,-4.8336,-4.832,-4.8335,-4.8286,-4.8348,-4.8261,-4.8345,-4.8278,-4.8296,-4.829,-4.8295,-4.8298,-4.8201,-4.835,-4.8598,-4.8622,-4.8302,-4.83,-4.8297,0,-4.8254,-4.8311,-4.8387,-4.8395,-4.8384,-4.8422,-4.8419,-4.8418,-4.8438,-4.8457,-4.847,-4.8497,-4.8511,-4.8533,-4.8494,-4.8434,-4.8585,-4.8493,-4.8573,-4.8574,-4.8608,-4.8606,-4.8862,-4.862,-4.862,-4.8619,-4.8619,0,-4.8444,-4.8518,-4.8464,-4.8511,-4.8592,-4.8541,-4.8622,-4.8611,-4.8612,-4.8656,-4.8591,-4.8634,-4.8579,-4.8617,-4.8587,-4.8662,-4.8669,-4.8658,-4.8649,-4.8664,-4.8666,-4.8675,-4.8663,-4.8626,-4.8624,-4.8623,-4.8622,0,-4.8648,-4.8614,-4.8693,-4.8678,-4.8676,-4.8736,-4.8723,-4.8766,-4.8745,-4.8802,-4.8812,-4.8779,-4.882,-4.8783,-4.8823,-4.8802,-4.8903,-4.8878,-4.8902,-4.8895,-4.8977,-4.897,-4.9248,-4.9282,-4.9019,-4.9021,-4.9023,0,-4.8771,-4.8826,-4.8817,-4.8843,-4.8844,-4.8886,-4.8906,-4.8858,-4.8882,-4.8891,-4.8934,-4.897,-4.8996,-4.9067,-4.9046,-4.9076,-4.9051,-4.9147,-4.9055,-4.9069,-4.9053,-4.9051,-4.9056,-4.9165,-4.9168,-4.9171,-4.9173,0,-4.8993,-4.8975,-4.9006,-4.9034,-4.906,-4.9079,-4.9092,-4.9117,-4.9068,-4.9098,-4.914,-4.9161,-4.9202,-4.9239,-4.9263,-4.9261,-4.921,-4.9202,-4.9222,-4.9238,-4.925,-4.9245,-4.8953,-4.9196,-4.9193,-4.9192,-4.919,-4.919,-4.916,-4.9207,-4.9208,-4.9246,-4.9252,-4.9267,-4.9307,-4.9292,-4.9326,-4.9356,-4.9326,-4.9377,-4.9381,-4.9408,-4.9412,-4.9452,-4.9412,-4.9441,-4.9448,-4.9456,-4.9468,-4.9244,-4.9456,-4.9455,-4.9454,-4.9454,-4.9453,0,-4.938,-4.9378,-4.9414,-4.9435,-4.9466,-4.9416,-4.9429,-4.9458,-4.9504,-4.9511,-4.9539,-4.9588,-4.9624,-4.9608,-4.9639,-4.9675,-4.9652,-4.9684,-4.9681,-4.9682,-4.9502,-4.9481,-4.9702,-4.9702,-4.9702,-4.9702,-4.9702,-4.9702,-4.9498,-4.9574,-4.9556,-4.9634,-4.9631,-4.9681,-4.9693,-4.9707,-4.9713,-4.9771,-4.9801,-4.979,-4.9788,-4.9819,-4.9851,-4.9845,-4.9859,-4.9901,-4.9887,-4.9719,-4.9694,-4.9671,-4.9651,-4.9904,-4.9905,-5.0063,-5.0065,-5.0066]},{"header":{"parameterUnit":"m.s-1","parameterCategory":1,"la1":30.2991,"la2":30.254,"lo1":-89.0895,"lo2":-89.0444,"dy":0.0017,"dx":0.0017,"nx":28,"ny":28,"refTime":"2024-08-03T09:00:00:Z","depth":0,"parameterNumber":3,"parameterNumberName":"V-component_of_WINDS"},"data":[0,0,0,0,0,0,0,0,0,0,0,0,0,0,0,0,0,0,0,0,0,0,0,0,0,0,0,0,0,0,0,0,0,0,0,0,0,0,0,0,0,0,0,0,0,0,0,0,0,0,0,0,0,0,0,0,0,0,0.903,0.9031,0,0.9066,0.9067,0.9067,0.9108,0.9108,0.9109,0.9109,0.9144,0.9145,0.9145,0,0,0,0,0,0,0,0,0,0,0,0,0,0.8993,0.8994,0.903,0.9031,0.9031,0.9066,0.9067,0.9067,0.9108,0.9108,0.9109,0.911,0.9144,0.9144,0.9145,0,0,0,0,0,0,0,0,0,0,0,0,0,0.9017,0.8994,0.903,0.9055,0.9058,0.9066,0.9067,0.9068,0.9107,0.9108,0.9109,0.911,0.9144,0.9144,0.9145,0.913,0,0,0.9147,0.9147,0,0,0,0,0,0,0,0,0.9016,0.9018,0.9051,0.9054,0.9057,0.9084,0.9067,0.9089,0.9107,0.9089,0.9109,0.9111,0.9123,0.9125,0.913,0.9132,0.9134,0.9147,0.9147,0.9147,0.9147,0,0,0,0,0,0,0,0.9014,0.9017,0.9044,0.9052,0.9055,0.9064,0.9069,0.9071,0.91,0.909,0.9093,0.9097,0.9125,0.913,0.9131,0.9134,0.9147,0.9147,0.9148,0.9148,0.9125,0.9124,0,0,0,0,0,0,0.9009,0.9015,0.9043,0.9046,0.9038,0.9064,0.9069,0.9074,0.91,0.9105,0.9096,0.9099,0.9128,0.9131,0.9133,0.9116,0.9147,0.9148,0.9148,0.9126,0.9125,0.9124,0,0,0,0,0,0,0.9008,0.9011,0.9042,0.9031,0.9036,0.9064,0.9069,0.9074,0.9079,0.9105,0.911,0.9096,0.9129,0.9132,0.9131,0.9118,0.9148,0.9149,0.9127,0.9125,0.9124,0.9084,0,0,0,0,0,0,0.9007,0.901,0.9006,0.9031,0.9036,0.904,0.9068,0.9074,0.908,0.9084,0.9106,0.9111,0.913,0.913,0.9131,0.9119,0.9149,0.9128,0.9126,0.9124,0.9086,0.9081,0.9077,0,0,0,0,0,0.9005,0.8993,0.9005,0.9008,0.9031,0.9039,0.9042,0.9065,0.9079,0.9074,0.9091,0.911,0.912,0.9129,0.9131,0.9119,0.9129,0.9127,0.9125,0.9089,0.9082,0.9077,0,0,0,0,0,0,0.8964,0.8996,0.9011,0.9006,0.902,0.9046,0.904,0.9058,0.9067,0.907,0.9098,0.9102,0.9097,0.9109,0.9119,0.9106,0.9127,0.9125,0.9099,0.9093,0.9088,0.9085,0.9149,0,0,0,0,0,0.8955,0.8959,0.8987,0.898,0.8986,0.9012,0.9016,0.9033,0.9048,0.9053,0.907,0.9083,0.9089,0.9092,0.9099,0.9089,0.9093,0.9082,0.9077,0.9073,0.907,0.9065,0.9059,0.9117,0.9117,0.9117,0,0,0.8935,0.8953,0.8954,0.8972,0.8985,0.8987,0.9016,0.9018,0.902,0.9053,0.9053,0.9066,0.9082,0.9076,0.9074,0.9085,0.9056,0.907,0.9067,0.9067,0.9062,0.9057,0.9052,0.9115,0.9115,0.9116,0,0,0.89,0.8915,0.891,0.8922,0.8941,0.8958,0.8957,0.8981,0.8991,0.8991,0.9016,0.9018,0.9028,0.9038,0.9045,0.9014,0.9031,0.9015,0.899,0.8984,0.8979,0.8975,0.8963,0.8958,0.9013,0.9013,0.9013,0,0.8873,0.8879,0.8906,0.8906,0.8913,0.8944,0.8939,0.8949,0.8968,0.8972,0.8984,0.8997,0.901,0.9006,0.8999,0.9004,0.9002,0.9012,0.8978,0.8974,0.8971,0.8959,0.8955,0.9011,0.9011,0.9011,0.9012,0,0.8844,0.8847,0.8841,0.886,0.8866,0.8864,0.8889,0.8892,0.8909,0.8924,0.8924,0.8941,0.8951,0.8952,0.8968,0.895,0.8956,0.8973,0.8994,0.8963,0.8952,0.8948,0.9008,0.9009,0.9009,0.901,0,0,0.8783,0.8817,0.8814,0.8822,0.8845,0.8848,0.8847,0.8858,0.8859,0.8872,0.887,0.8878,0.8894,0.8901,0.8919,0.8914,0.8886,0.8931,0.8932,0.892,0.8866,0.8852,0.8846,0.8899,0.8898,0.8898,0.8864,0,0.875,0.875,0.8774,0.8767,0.877,0.88,0.8799,0.8812,0.8827,0.8831,0.8848,0.8852,0.8873,0.8877,0.8874,0.889,0.8875,0.8893,0.8896,0.8896,0.8889,0.8841,0.8826,0.8793,0.886,0.8859,0.8859,0,0.8712,0.8723,0.8716,0.8739,0.8741,0.874,0.8751,0.8756,0.8771,0.8782,0.879,0.8811,0.881,0.8831,0.883,0.8841,0.8844,0.8852,0.8852,0.8851,0.8874,0.8837,0.8784,0.8778,0.8853,0.8853,0.8854,0,0.8666,0.8679,0.8677,0.8683,0.871,0.8708,0.8719,0.8736,0.8741,0.8751,0.8754,0.8764,0.8769,0.8775,0.8797,0.8811,0.8792,0.8816,0.88,0.8799,0.8793,0.8793,0.8737,0.8798,0.8798,0.8798,0.8799,0,0.8626,0.8621,0.8656,0.8654,0.8648,0.8676,0.8669,0.8683,0.8698,0.8698,0.8725,0.8725,0.8755,0.8758,0.8775,0.877,0.8773,0.8781,0.8785,0.8777,0.8776,0.8778,0.878,0.8797,0.8798,0.8798,0.8798,0,0.8573,0.8597,0.8596,0.8622,0.8628,0.8622,0.8644,0.8643,0.866,0.866,0.8662,0.8688,0.8692,0.8716,0.8726,0.8737,0.8726,0.8736,0.872,0.8723,0.8705,0.8705,0.8647,0.864,0.8707,0.8706,0.8706,0,0.8545,0.8541,0.8567,0.8569,0.8579,0.8584,0.8589,0.8616,0.862,0.8638,0.8634,0.8641,0.8648,0.8654,0.8673,0.8681,0.869,0.8669,0.8691,0.8683,0.8687,0.8686,0.8685,0.8663,0.8663,0.8662,0.8661,0,0.8492,0.8504,0.8511,0.8522,0.8527,0.8537,0.8548,0.8548,0.8579,0.8582,0.8587,0.8593,0.8604,0.861,0.8621,0.8631,0.865,0.8655,0.8651,0.8642,0.8632,0.8635,0.8705,0.8655,0.8656,0.8656,0.8657,0.8657,0.8449,0.8447,0.8464,0.8471,0.8482,0.8492,0.8492,0.8509,0.8514,0.8525,0.8541,0.8544,0.856,0.8576,0.8585,0.8588,0.8599,0.8594,0.8592,0.859,0.8585,0.8634,0.859,0.859,0.859,0.8591,0.8591,0,0.8396,0.8409,0.8415,0.843,0.8434,0.8454,0.8467,0.847,0.8472,0.8485,0.8492,0.8498,0.8504,0.8524,0.8532,0.8529,0.8538,0.853,0.853,0.8531,0.8576,0.8577,0.8523,0.8523,0.8523,0.8523,0.8523,0.8523,0.8369,0.8365,0.8379,0.8381,0.8394,0.8398,0.8404,0.8412,0.8423,0.8428,0.8434,0.8447,0.8463,0.8472,0.8478,0.8484,0.8485,0.8473,0.8481,0.8522,0.8528,0.8535,0.8536,0.8474,0.8474,0.8436,0.8436,0.8436]}]]